Lid_Strength_Index
6 6 6 6 5 5 6 6 5 5 3 3 2 2 2 2 2 1 2 2 2 3 3 4 4 5 5 6 7 7 7 5 6 5 3 4 5 6 6 5 5 5 5
7 7 6 5 6 6 5 5 4 5 4 3 1 1 2 3 4 2 3 3 3 3 3 4 4 3 5 6 6 7 8 6 4 5 4 5 6 5 6 6 6 5 6
6 6 6 6 5 5 5 5 4 4 3 2 3 3 3 4 4 4 4 4 5 4 4 4 4 4 6 6 7 7 7 6 4 5 6 5 5 5 6 6 6 6 5
6 6 5 5 5 5 5 4 4 4 4 4 3 3 4 5 4 4 4 5 5 5 4 3 4 5 6 6 6 4 4 4 5 5 6 5 5 5 6 8 8 7 8
4 4 4 4 4 4 3 4 4 4 4 4 5 5 5 5 5 5 6 6 7 5 4 4 3 1 1 3 5 3 4 5 5 6 5 5 6 7 7 7 8 7 7
4 4 4 5 5 5 5 4 4 5 5 5 6 5 5 5 4 4 5 7 5 6 6 5 4 4 4 2 2 2 3 5 5 5 6 7 7 7 7 7 8 8 9
4 4 5 5 5 6 5 5 5 5 5 5 5 4 6 5 4 4 3 5 5 6 7 8 6 4 4 4 4 3 3 3 3 5 6 6 7 7 8 8 9 9 9
5 5 5 5 5 5 5 5 6 6 6 5 5 6 7 5 4 5 4 6 7 5 5 5 6 5 5 4 4 5 5 5 5 5 6 6 7 8 9 9 9 9 9
5 5 5 5 5 5 5 5 5 5 5 5 5 5 5 5 5 6 5 5 5 6 5 5 5 5 6 5 5 5 5 5 4 5 6 6 7 7 7 9 9 10 10
5 5 6 6 6 6 6 5 5 4 4 4 4 4 4 5 6 6 5 5 6 6 6 7 7 7 7 6 5 6 8 8 8 8 8 8 7 6 4 5 7 9 9
5 4 5 6 6 6 6 5 5 5 5 5 5 5 5 5 5 7 7 5 6 6 7 7 7 8 9 8 7 7 8 7 8 9 9 9 9 8 8 7 7 8 7
5 5 6 6 6 6 6 6 6 6 6 6 6 6 5 6 6 7 7 7 6 7 8 8 9 9 9 9 8 9 8 7 9 9 9 9 9 9 8 8 7 7 7
5 6 6 6 6 6 6 6 7 7 6 6 6 7 8 7 7 8 8 8 7 6 7 7 8 8 8 7 7 8 8 9 9 9 9 9 7 6 6 5 6 6 5
6 6 6 6 6 6 6 6 6 7 7 7 8 8 8 7 7 7 6 6 6 7 6 7 7 7 7 6 7 6 7 9 9 9 9 8 6 5 6 5 7 7 7
6 5 6 6 6 7 6 7 7 8 9 9 8 8 7 7 7 8 8 6 7 8 7 8 7 7 6 6 5 6 6 7 8 8 8 7 6 6 5 7 7 7 8
7 8 8 7 6 6 7 7 7 8 9 9 9 9 6 8 8 9 9 9 9 9 6 7 7 7 6 5 5 5 6 6 5 6 6 5 5 5 5 5 6 6 7
8 7 7 7 7 6 6 6 7 6 7 8 8 8 9 9 9 9 9 9 9 8 8 8 8 8 8 8 9 9 9 8 8 8 7 6 5 4 6 6 7 7 7
6 7 5 5 5 5 5 6 6 6 6 7 7 8 9 9 10 9 9 9 9 9 11 10 10 10 11 11 10 10 10 10 9 9 9 9 7 6 7 9 9 10 9
6 6 5 5 6 6 5 5 5 5 5 6 7 8 8 9 10 10 10 10 11 11 12 12 11 11 12 11 11 11 11 11 10 10 9 9 9 8 9 10 10 11 11
6 7 7 6 6 5 5 5 5 6 7 8 9 9 9 9 9 10 10 11 12 12 13 13 13 13 13 13 12 12 12 11 11 10 10 9 9 9 10 10 10 10 11
6 6 7 5 5 6 7 7 8 9 10 10 10 11 14 10 12 12 12 12 13 13 13 14 14 14 14 13 13 13 12 12 12 11 10 9 9 9 10 10 10 10 10
6 5 5 6 6 7 8 8 9 10 10 10 10 10 13 11 12 13 13 13 14 14 13 13 14 14 13 13 13 13 13 13 12 12 11 10 9 9 10 10 10 10 10
5 5 6 7 7 9 9 9 9 10 10 10 10 10 10 11 12 12 13 13 13 13 13 13 13 14 13 13 13 13 14 13 13 13 12 10 10 10 10 10 10 11 11
6 7 7 8 9 9 9 9 10 10 10 11 11 11 11 11 11 12 12 12 12 12 12 12 13 14 14 14 13 13 14 14 13 12 10 10 10 10 11 11 11 11 11
5 5 7 8 9 10 10 10 10 11 11 11 12 12 12 12 12 12 12 12 11 12 12 13 14 14 14 14 14 14 14 14 13 13 10 10 10 11 11 11 11 12 12
5 4 6 8 9 10 10 10 10 11 11 12 12 13 13 13 12 12 12 11 11 12 13 13 14 14 14 14 14 14 14 14 13 13 10 11 11 12 12 12 12 13 13